Regional Weather Roundup
Issued by NWS

Home | Current Version | Previous Version | Graphics & Text | Print | Product List | Glossary On
Versions: 1 2 3 4 5 6 7 8 9 10 11 12 13 14 15 16 17 18 19 20 21 22 23 24 25 26 27 28 29 30 31 32 33 34 35 36 37 38 39 40 41 42 43 44 45 46 47 48 49 50
000
ASUS43 KTOP 252208
RWRKS

WEATHER ROUNDUP FOR KANSAS
NATIONAL WEATHER SERVICE GOODLAND KS
500 PM CDT FRI JUL 25 2014

NOTE:  "FAIR" INDICATES FEW OR NO CLOUDS BELOW 12,000 FEET WITH NO
SIGNIFICANT WEATHER AND/OR OBSTRUCTIONS TO VISIBILITY.

KSZ001>006-013>018-027>032-041>047-252300-
NORTHWEST KANSAS

CITY           SKY/WX    TMP DP  RH WIND       PRES   REMARKS
GOODLAND       MOSUNNY   96  62  32 N10       29.94F HX  97
HAYS           SUNNY     99  64  32 N8        29.79S HX 101
HILL CITY      MOSUNNY  102  63  27 N14       29.81F HX 104
RUSSELL        SUNNY    102  60  25 W8        29.75F HX 103
$$

KSZ061>065-074>080-084>089-252300-
SOUTHWEST KANSAS

CITY           SKY/WX    TMP DP  RH WIND       PRES   REMARKS
DODGE CITY     SUNNY    101  56  22 S9        29.84F HX 100
ELKHART          N/A    102  61  26 SE12        N/A  HX 103
GARDEN CITY    SUNNY    101  54  20 S3        29.85F HX  99
GREAT BEND     SUNNY    104  63  25 S23       29.74F HX 106
LIBERAL        SUNNY    106  54  17 SW12      29.86F HX 104
PRATT          SUNNY     99  61  28 S24       29.82F HX  99
$$

KSZ066>073-081>083-090>101-252300-
SOUTHEAST KANSAS

CITY           SKY/WX    TMP DP  RH WIND       PRES   REMARKS
CHANUTE        SUNNY     92  73  53 S20G26    29.85S HX 100
COFFEYVILLE    SUNNY     93  75  55 S20G25    29.85F HX 104
HUTCHINSON     SUNNY    103  62  26 SW24G33   29.78F HX 105
MEDICINE LODGE   N/A    102  61  25 S16G29    29.79F HX 103
NEWTON         SUNNY    102  63  27 SW23G31   29.83F HX 104
PARSONS        SUNNY     93  72  50 S14G22    29.87F HX 101
WICHITA INTL   MOSUNNY  102  61  25 SW22G28   29.79F HX 103
WICHITA JABRA  MOSUNNY  103  63  27 S21G30    29.79F HX 105
WICHITA MCCONL SUNNY    101  60  25 S22       29.80F HX 102
WINFIELD       SUNNY     98  70  40 S17G29    29.83F HX 105
$$

KSZ007>012-019>026-033>040-048>060-102>105-252300-
NORTHEAST KANSAS

CITY           SKY/WX    TMP DP  RH WIND       PRES   REMARKS
CONCORDIA      MOSUNNY  102  63  27 SW9       29.74F HX 104
EMPORIA        MOSUNNY   98  70  40 S18G30    29.80S HX 105
LAWRENCE       SUNNY    100  71  39 S15G22    29.77F HX 108
MANHATTAN      PTSUNNY  104  67  30 SW18      29.73S HX 109
MARYSVILLE     MOSUNNY  100  70  37 SW10G18   29.74R HX 107
OLATHE IND     SUNNY     97  70  41 SW20G26   29.81S HX 103
OLATHE EXE     SUNNY     94  71  47 S14G24    29.80F HX 101
SALINA         MOSUNNY  105  64  26 SW17      29.75S HX 108
TOPEKA BILLARD MOSUNNY  101  67  32 SW15G23   29.76S HX 106
TOPEKA FORBES  MOSUNNY  102  66  30 S20G28    29.77S HX 106
$$


USA.gov is the U.S. government's official web portal to all federal, state and local government web resources and services.